Theta_e
331 330 339 341 339 338 337 333 332 330 331 323 318 320 320 323 330 331 331 329 329 327 325 328 328 329 331 333 331 330 329 329 328 325 324 317 316 318 322 321 316 327 315
328 325 334 341 339 336 334 334 333 332 331 324 318 328 328 324 326 326 324 324 326 326 320 318 327 327 328 330 331 331 329 327 321 322 313 313 316 317 316 327 323 323 320
327 323 330 335 340 337 334 335 332 333 329 322 317 322 325 327 326 326 324 325 323 322 318 316 316 318 321 325 326 325 324 322 321 318 316 313 315 316 317 326 324 318 324
324 322 326 330 333 332 337 335 335 330 322 321 321 329 329 326 329 328 328 326 323 321 317 315 315 314 311 314 315 313 316 316 314 314 316 314 314 316 319 327 327 321 319
324 323 326 329 331 336 335 334 331 325 321 320 320 328 329 329 329 328 327 326 327 324 314 314 314 315 315 315 314 314 313 311 310 310 310 312 315 318 320 330 330 330 327
327 325 325 330 333 339 332 330 329 323 320 318 316 326 327 329 331 330 329 328 329 323 315 315 315 315 315 316 316 316 317 316 316 315 315 312 311 312 320 324 327 328 325
329 328 326 327 331 335 330 330 328 322 318 317 320 324 328 330 330 331 330 328 329 321 315 316 316 316 317 317 317 318 320 319 320 320 321 321 320 317 316 318 326 326 328
330 330 329 326 328 332 331 330 327 323 321 318 319 322 323 327 329 330 330 331 329 317 316 317 318 318 319 319 320 321 321 321 322 325 326 326 326 324 323 321 321 326 330
334 333 332 330 327 329 329 329 326 325 327 321 319 317 317 321 325 326 327 326 318 316 317 319 322 324 326 327 327 328 329 329 329 329 329 329 328 328 328 328 327 327 328
336 335 334 331 327 327 326 327 326 332 330 325 322 317 315 316 322 324 322 316 316 318 322 326 327 328 329 330 330 330 330 329 329 328 328 328 329 329 329 328 328 328 329
336 337 336 332 326 328 325 326 328 328 327 326 324 316 314 315 317 316 315 316 321 325 327 329 330 330 330 329 329 328 328 326 326 325 325 325 327 327 328 328 327 328 328
334 334 336 333 328 327 327 326 328 327 326 325 322 319 315 316 317 318 320 322 327 328 329 330 329 329 328 327 327 326 325 323 322 323 323 324 325 324 325 326 328 328 328
327 332 333 333 332 330 330 328 331 333 331 326 322 322 322 320 321 323 324 327 328 330 332 330 328 327 327 326 325 324 320 320 318 318 321 321 321 318 316 321 326 326 325
324 328 332 335 334 333 334 333 335 333 328 327 329 328 327 325 327 327 329 330 330 330 329 327 326 326 325 324 321 316 313 313 313 313 315 319 322 320 315 317 318 321 322
325 326 330 335 335 336 337 336 335 333 331 330 330 330 328 329 329 329 333 330 330 328 327 326 325 323 316 311 311 311 311 310 309 310 312 314 315 313 313 315 318 320 322
325 323 327 333 337 338 339 339 337 335 333 333 331 331 331 332 331 331 330 328 327 326 325 321 314 311 311 311 310 308 306 305 305 306 306 309 311 312 313 313 314 315 317
326 324 325 331 337 339 340 340 339 337 334 332 332 331 330 330 330 327 327 327 326 320 311 310 310 310 307 306 305 304 304 304 304 305 307 309 311 311 311 310 310 310 312
325 324 324 332 337 340 341 340 336 335 333 331 331 330 329 328 327 326 326 320 309 310 309 307 306 304 303 303 303 303 303 303 304 306 307 307 308 307 306 307 307 307 307
324 324 326 332 336 339 340 338 336 335 332 331 330 329 327 325 325 323 310 309 308 308 307 306 304 303 302 302 302 302 302 302 306 302 302 302 302 300 300 302 301 300 300
326 328 332 335 336 336 336 336 335 333 331 331 330 328 328 325 310 309 309 309 309 309 307 304 302 301 300 300 301 301 300 302 303 300 301 299 299 298 299 297 297 297 297
326 330 333 335 334 334 336 333 332 330 330 329 328 327 321 309 310 310 310 310 310 308 304 302 300 300 299 299 299 300 299 299 298 301 301 298 298 297 298 296 296 296 296
322 324 328 333 333 336 335 332 330 329 328 327 324 312 309 310 310 311 311 311 309 305 302 300 298 298 297 296 296 296 296 297 299 302 297 298 296 296 296 295 295 295 295
321 322 323 326 334 336 334 332 328 328 326 320 310 310 310 310 312 312 311 310 307 303 300 298 297 296 295 295 293 293 294 294 293 295 294 294 294 294 294 294 293 293 293
322 323 325 328 335 335 333 331 329 328 324 312 310 310 310 311 312 311 310 308 306 302 300 298 296 296 294 293 293 293 292 292 291 292 292 293 292 292 292 292 292 292 292
324 325 327 333 334 333 332 332 330 327 316 311 310 310 311 312 311 310 308 307 305 302 299 297 296 294 293 292 292 292 292 291 290 290 289 290 291 291 291 290 290 290 290
326 328 331 332 333 332 330 329 327 319 311 311 311 310 311 311 310 308 307 306 304 300 298 296 294 292 292 292 292 291 290 289 289 288 288 288 288 288 288 289 289 289 289
Wind_Speed
9 11 15 13 11 12 8 7 4 4 4 3 2 7 8 10 11 8 7 6 9 14 10 4 5 3 3 6 10 12 13 14 16 19 17 16 13 15 17 14 11 13 10
8 13 16 16 13 11 9 9 6 5 5 3 1 11 9 4 8 5 4 6 7 11 5 3 8 7 8 9 9 9 11 13 11 15 10 6 4 4 6 5 7 8 7
8 11 12 15 15 12 12 9 6 6 5 2 1 8 8 5 3 1 1 3 4 4 5 6 4 7 7 8 8 10 12 13 15 12 9 5 4 5 5 6 8 6 9
8 11 11 14 16 13 11 8 7 7 4 2 4 5 4 5 4 3 4 5 3 6 6 7 3 2 3 5 6 8 9 12 11 8 7 5 6 6 6 7 8 8 11
11 11 11 12 13 13 10 8 6 5 4 4 7 9 8 5 4 2 1 4 8 9 7 6 5 4 4 2 3 3 4 6 6 6 5 5 7 8 7 7 10 10 10
11 11 9 11 11 11 9 7 6 4 3 5 8 10 9 5 4 3 1 5 5 7 7 7 6 6 6 5 4 4 4 5 6 6 7 8 10 9 10 9 13 13 11
11 11 9 10 10 10 8 7 6 4 4 5 8 10 9 7 4 2 3 3 6 5 5 7 8 8 8 7 8 7 7 7 9 10 10 10 10 11 12 13 12 13 15
10 11 10 9 10 10 9 7 6 6 5 5 6 7 7 8 7 5 5 6 4 2 4 5 6 7 7 7 7 8 8 9 10 11 12 12 11 11 11 12 14 13 16
10 11 9 9 10 11 10 9 8 7 6 4 4 4 5 6 8 7 5 5 3 2 5 6 6 6 6 6 6 6 7 8 9 9 10 10 10 10 12 13 14 14 14
12 12 10 10 13 13 12 11 9 8 5 3 2 2 3 6 7 6 4 2 1 3 4 5 4 4 5 6 7 8 10 11 12 12 11 9 9 9 9 12 12 12 14
17 16 13 12 14 14 13 12 11 9 6 5 4 3 5 6 6 4 3 1 1 2 3 5 6 7 9 10 10 10 11 12 13 12 12 10 11 11 11 11 11 12 15
20 20 17 15 15 16 15 14 12 9 8 7 6 6 5 5 5 4 2 2 1 1 3 5 7 8 11 14 14 13 13 13 14 13 12 9 11 13 12 11 15 17 19
14 19 20 17 16 17 16 15 13 11 10 8 7 7 5 5 5 4 3 1 2 5 5 7 11 14 14 15 16 16 16 17 18 16 15 16 15 14 15 15 15 17 18
18 18 18 19 19 18 15 14 12 10 10 9 9 7 5 5 4 3 3 3 4 6 9 12 14 16 18 17 18 17 18 19 20 20 19 18 18 18 18 17 17 15 17
25 23 21 19 21 19 17 15 14 11 10 9 9 7 6 4 6 6 3 3 5 8 11 14 18 19 16 16 19 21 21 22 21 20 19 18 19 18 14 13 11 11 12
25 25 24 22 20 20 18 16 13 11 12 11 10 8 6 6 8 6 3 5 8 13 14 16 15 19 21 23 24 24 22 20 17 15 14 12 9 8 7 7 9 10 10
27 23 23 24 21 21 19 17 14 13 12 12 10 8 7 6 5 4 5 8 10 10 12 15 19 22 24 24 22 19 15 13 11 9 7 7 8 7 8 9 11 12 12
27 25 23 25 22 21 20 18 18 14 14 13 12 10 7 6 5 4 5 6 7 10 15 18 20 21 21 20 18 14 12 10 8 7 7 9 9 10 10 11 13 15 17
28 25 25 26 23 22 22 20 19 17 16 15 13 10 7 5 5 4 3 5 9 12 14 15 16 18 19 18 17 14 10 9 8 8 6 10 11 13 12 12 14 17 18
22 22 25 27 25 24 24 20 18 16 16 15 13 12 7 7 6 2 4 7 11 14 16 16 15 15 18 20 19 17 8 7 12 12 9 16 11 16 12 17 19 18 20
21 21 28 30 28 29 26 22 19 16 16 15 14 11 10 9 4 2 6 10 14 18 19 18 16 15 17 22 25 23 11 8 14 11 15 19 20 18 15 25 20 22 22
24 24 27 30 33 33 24 20 20 18 18 17 15 15 12 7 1 4 8 12 15 17 16 15 16 16 18 21 23 19 13 15 6 13 22 16 25 18 29 22 27 26 26
24 24 27 32 35 30 21 20 19 21 21 21 20 16 11 5 0 5 9 13 16 17 16 15 15 17 17 16 18 15 9 7 35 16 33 27 32 33 32 32 31 29 28
22 21 22 29 31 25 20 23 23 24 24 23 20 15 9 4 2 6 9 13 16 16 14 14 15 16 18 20 18 16 14 18 15 20 27 42 35 41 40 39 35 30 33
22 22 22 28 26 22 20 20 22 23 24 23 20 14 9 5 4 6 9 13 15 15 14 14 14 16 18 19 20 23 24 24 22 20 35 41 47 45 44 39 39 38 33
24 24 25 26 23 20 18 19 20 25 26 23 19 14 9 6 5 7 10 13 15 15 15 15 16 17 19 20 21 22 22 23 26 25 32 39 41 44 45 47 37 35 33
Wind_Direction
180 164 170 171 175 197 204 211 224 261 271 297 221 195 193 199 199 208 227 249 259 291 298 172 214 203 186 182 222 235 253 269 287 295 291 285 267 257 250 256 263 264 250
172 157 168 175 195 200 214 207 233 258 293 315 109 157 141 164 193 205 224 238 256 287 286 261 223 216 213 219 235 251 261 275 296 323 314 288 273 253 233 224 255 263 239
162 161 164 177 195 207 210 209 230 261 281 277 172 147 174 146 114 248 178 197 275 261 338 354 250 244 246 231 250 265 275 293 303 323 325 306 306 281 256 240 251 253 232
168 165 161 176 193 202 204 213 239 266 260 224 154 135 145 147 146 133 141 189 13 19 20 10 29 5 269 249 268 281 282 297 305 315 329 305 306 298 281 260 264 262 254
168 166 160 166 181 189 201 209 235 250 233 195 171 158 154 159 147 141 150 1 19 15 28 33 32 18 36 18 356 332 321 314 336 329 310 305 294 292 294 264 265 265 266
168 165 168 165 173 187 193 199 217 228 215 172 174 165 146 147 186 200 217 295 347 8 30 39 33 30 22 17 12 25 1 350 349 345 339 317 305 295 286 270 275 279 277
173 174 175 179 182 190 198 209 207 192 162 146 155 162 157 162 148 200 231 285 322 350 14 22 18 13 9 6 5 5 352 348 341 339 336 327 317 306 299 286 275 275 273
192 190 187 191 198 202 209 214 208 189 154 138 143 155 164 177 178 171 232 256 278 322 1 11 8 5 356 354 351 345 338 334 332 331 330 333 330 316 311 303 297 274 273
196 209 206 209 208 210 218 221 217 193 167 148 134 150 174 186 193 192 200 229 253 331 355 2 357 360 355 351 356 353 343 339 330 328 325 324 321 318 317 312 298 293 276
219 215 217 226 220 215 220 223 214 197 190 177 187 179 186 185 185 192 205 213 303 345 2 0 2 352 349 340 337 333 326 321 316 314 312 312 309 301 300 306 295 293 294
224 223 223 229 226 220 222 225 220 210 207 214 222 225 205 184 176 166 182 207 353 3 16 351 351 344 331 323 318 311 310 311 311 315 316 315 310 304 297 287 295 297 290
226 228 224 226 224 221 221 223 220 218 220 218 224 211 175 173 179 184 189 183 233 306 326 340 324 314 316 315 311 311 309 308 309 309 313 309 300 299 296 291 287 285 282
254 237 232 225 223 219 221 221 219 222 228 219 201 198 184 187 186 191 190 223 267 297 307 322 322 315 310 308 306 305 305 304 305 304 296 299 302 304 302 289 280 278 279
252 244 235 228 223 219 218 219 220 228 216 211 211 210 202 219 221 232 242 248 305 324 320 314 307 303 302 295 297 297 298 298 297 295 293 293 295 298 302 295 298 297 292
250 245 236 228 224 221 220 219 218 222 215 210 209 217 224 238 244 243 247 276 311 305 294 295 297 298 296 294 295 298 300 298 295 294 294 293 295 298 300 293 297 293 288
254 245 237 231 226 223 225 225 228 225 215 209 208 214 233 241 253 268 251 293 301 293 298 301 301 301 301 301 300 300 301 300 299 298 298 298 289 290 293 291 293 293 297
246 244 234 230 225 223 226 232 232 232 210 202 200 205 221 225 222 217 272 287 284 293 300 301 300 298 298 299 302 307 306 302 300 299 295 289 281 284 296 293 292 292 295
234 241 228 223 222 221 225 221 229 217 207 207 201 211 206 211 218 240 271 287 293 304 305 303 304 306 308 313 319 321 310 294 282 285 290 288 295 296 293 294 293 293 293
237 232 221 215 215 216 220 221 224 214 209 211 214 200 194 197 220 232 253 300 315 319 323 326 328 324 324 327 330 332 312 278 256 286 306 306 297 304 295 295 298 298 295
229 218 212 207 210 215 219 212 216 210 211 209 212 199 221 200 190 214 316 326 335 340 341 341 343 337 335 335 336 340 320 268 268 275 285 319 298 311 289 307 298 298 298
223 208 206 205 210 219 211 202 203 205 198 190 188 196 186 180 185 330 339 348 349 347 347 346 345 346 345 342 344 346 339 273 286 243 298 300 308 298 284 313 302 303 297
226 219 213 209 214 213 213 204 191 195 183 184 184 175 171 177 190 359 359 355 352 349 346 343 347 352 354 349 350 348 335 334 245 259 302 283 313 303 304 301 305 302 297
223 222 218 214 209 208 206 201 189 190 181 179 174 176 176 178 11 354 350 350 351 350 346 346 346 348 350 351 353 1 341 314 318 316 312 311 312 313 312 311 311 307 301
219 217 211 204 201 202 206 194 195 192 185 180 179 181 183 188 294 331 342 348 347 346 344 341 340 339 340 341 342 336 327 315 319 314 309 312 316 313 314 315 314 310 307
211 202 194 190 194 199 200 203 198 196 186 181 183 188 193 218 280 323 336 339 340 341 338 334 332 333 333 331 332 330 327 323 322 308 309 312 312 314 314 315 313 310 308
199 193 186 189 192 196 196 199 197 190 187 188 189 195 207 237 287 312 325 330 334 335 331 330 329 328 326 326 326 326 326 326 318 317 309 309 309 312 311 311 312 312 310